Weather History for Thomson, GA

Change the Weather History Date:

Tuesday, May 7, 2013

  Actual Average (KDBN) Record (KDBN)
Temperature  
Mean Temperature 60 °F -  
Max Temperature 69 °F 83 °F 97 °F (1959)
Min Temperature 52 °F 53 °F 40 °F (1992)
Degree Days  
Heating Degree Days 4    
Growing Degree Days 10 (Base 50)    
Moisture  
Dew Point 53 °F    
Average Humidity 82    
Maximum Humidity 100    
Minimum Humidity 55    
Precipitation  
Precipitation 0.00 in - - ()
Sea Level Pressure  
Sea Level Pressure 29.97 in    
Wind  
Wind Speed 2 mph (SW)    
Max Wind Speed 10 mph    
Max Gust Speed 16 mph    
Visibility 10 miles    
Events      
Averages and records for this station are not official NWS values.
T = Trace of Precipitation, MM = Missing Value Source: NWS Daily Summary

Daily Weather History Graph

Daily Weather History Graph

Search for Another Location

Airport:

Trip Planner

Search our weather history database for the weather conditions in past years. The results will help you decide how hot, cold, wet, or windy it might be!

Date:

Astronomy

May. 07, 2013 Rise Set
Actual Time 6:35 AM EDT 8:17 PM EDT
Civil Twilight 6:08 AM EDT 8:44 PM EDT
Nautical Twilight 5:36 AM EDT 9:17 PM EDT
Astronomical Twilight 5:02 AM EDT 9:51 PM EDT
Moon 5:02 AM EDT (5/7) 6:21 PM EDT (5/7)
Length of Visible Light 14h 35m
Length of Day
13h 42m
Waning Crescent, 5% of the Moon is Illuminated
May 7
Waning Crescent
May 9
New
May 18
First Quarter
May 25
Full
May 31
Last Quarter

Hourly Weather History & Observations

Time (EDT) Temp. Dew Point Humidity Pressure Visibility Wind Dir Wind Speed Gust Speed Precip Events Conditions
12:15 AM 54.1 °F 54.1 °F 100% 29.96 in 10.0 mi Calm Calm - N/A   Overcast
12:35 AM 54.0 °F 54.0 °F 100% 29.96 in 10.0 mi Calm Calm - N/A   Overcast
12:55 AM 54.9 °F 54.1 °F 97% 29.96 in 10.0 mi Calm Calm - N/A   Overcast
1:15 AM 54.3 °F 54.1 °F 99% 29.96 in 10.0 mi Calm Calm - N/A   Overcast
1:35 AM 54.1 °F 54.1 °F 100% 29.95 in 10.0 mi Calm Calm - N/A   Overcast
1:55 AM 54.5 °F 53.8 °F 97% 29.94 in 10.0 mi Calm Calm - N/A   Overcast
2:15 AM 54.5 °F 53.8 °F 97% 29.93 in 10.0 mi Calm Calm - N/A   Overcast
2:35 AM 54.0 °F 53.8 °F 99% 29.93 in 10.0 mi SSE 3.5 mph - N/A   Scattered Clouds
2:55 AM 54.5 °F 52.7 °F 94% 29.92 in 10.0 mi Calm Calm - N/A   Clear
3:15 AM 54.5 °F 51.1 °F 88% 29.92 in 10.0 mi SSW 3.5 mph - N/A   Clear
3:35 AM 53.6 °F 51.3 °F 92% 29.92 in 10.0 mi Calm Calm - N/A   Clear
3:55 AM 53.1 °F 51.3 °F 94% 29.92 in 10.0 mi SSW 3.5 mph - N/A   Scattered Clouds
4:15 AM 52.9 °F 51.8 °F 96% 29.92 in 10.0 mi SSW 3.5 mph - N/A   Overcast
4:35 AM 53.1 °F 52.2 °F 97% 29.92 in 10.0 mi South 4.6 mph - N/A   Overcast
4:55 AM 53.4 °F 52.9 °F 98% 29.92 in 10.0 mi SSW 4.6 mph - N/A   Overcast
5:15 AM 53.8 °F 53.6 °F 99% 29.92 in 10.0 mi SSW 4.6 mph - N/A   Overcast
5:35 AM 53.6 °F 53.6 °F 100% 29.92 in 10.0 mi SSW 3.5 mph - N/A   Overcast
5:55 AM 53.6 °F 53.6 °F 100% 29.92 in 10.0 mi Calm Calm - N/A   Overcast
6:15 AM 53.6 °F 53.6 °F 100% 29.92 in 10.0 mi Calm Calm - N/A   Overcast
6:35 AM 53.6 °F 53.6 °F 100% 29.93 in 10.0 mi Calm Calm - N/A   Overcast
6:55 AM 53.6 °F 53.6 °F 100% 29.94 in 10.0 mi Calm Calm - N/A   Overcast
7:15 AM 53.6 °F 53.6 °F 100% 29.95 in 10.0 mi Calm Calm - N/A   Overcast
7:35 AM 53.8 °F 53.8 °F 100% 29.96 in 10.0 mi Calm Calm - N/A   Overcast
7:55 AM 53.8 °F 53.8 °F 100% 29.97 in 10.0 mi Calm Calm - N/A   Overcast
8:15 AM 54.1 °F 54.1 °F 100% 29.97 in 10.0 mi Calm Calm - N/A   Overcast
8:35 AM 55.0 °F 54.5 °F 98% 29.97 in 10.0 mi West 5.8 mph - N/A   Mostly Cloudy
8:55 AM 55.6 °F 54.0 °F 94% 29.97 in 10.0 mi NW 3.5 mph - N/A   Mostly Cloudy
9:15 AM 55.4 °F 53.6 °F 94% 29.99 in 10.0 mi West 3.5 mph - N/A   Mostly Cloudy
9:35 AM 57.0 °F 53.8 °F 89% 29.99 in 10.0 mi Calm Calm - N/A   Mostly Cloudy
9:55 AM 57.7 °F 53.2 °F 85% 29.99 in 10.0 mi West 5.8 mph - N/A   Overcast
10:15 AM 58.8 °F 53.2 °F 82% 29.99 in 10.0 mi Calm Calm - N/A   Mostly Cloudy
10:35 AM 60.8 °F 53.6 °F 77% 29.99 in 10.0 mi West 5.8 mph - N/A   Scattered Clouds
10:55 AM 60.8 °F 53.1 °F 76% 29.99 in 10.0 mi Calm Calm - N/A   Scattered Clouds
11:15 AM 61.7 °F 50.7 °F 67% 29.98 in 10.0 mi Calm Calm - N/A   Scattered Clouds
11:35 AM 60.8 °F 52.5 °F 74% 29.99 in 10.0 mi WSW 4.6 mph - N/A   Mostly Cloudy
11:55 AM 62.4 °F 52.3 °F 70% 29.99 in 10.0 mi Calm Calm - N/A   Mostly Cloudy
12:15 PM 64.0 °F 53.1 °F 67% 29.99 in 10.0 mi WSW 3.5 mph - N/A   Mostly Cloudy
12:35 PM 63.9 °F 51.6 °F 64% 29.99 in 10.0 mi SW 4.6 mph - N/A   Mostly Cloudy
12:55 PM 64.4 °F 52.2 °F 64% 29.99 in 10.0 mi West 5.8 mph - N/A   Mostly Cloudy
1:15 PM 63.5 °F 52.5 °F 67% 29.98 in 10.0 mi SW 6.9 mph - N/A   Mostly Cloudy
1:35 PM 63.5 °F 53.2 °F 69% 29.99 in 10.0 mi WSW 10.4 mph - N/A   Overcast
1:55 PM 64.4 °F 53.8 °F 68% 29.99 in 10.0 mi North - - N/A   Mostly Cloudy
2:15 PM 64.2 °F 53.6 °F 68% 29.99 in 10.0 mi West 8.1 mph - N/A   Mostly Cloudy
2:35 PM 66.2 °F 53.2 °F 63% 29.99 in 10.0 mi West 6.9 mph - N/A   Scattered Clouds
2:55 PM 67.3 °F 53.4 °F 61% 29.98 in 10.0 mi SW 4.6 mph - N/A   Clear
3:15 PM 66.9 °F 53.1 °F 61% 29.97 in 10.0 mi WSW 5.8 mph - N/A   Scattered Clouds
3:35 PM 68.2 °F 53.2 °F 59% 29.96 in 10.0 mi SW 6.9 mph 16.1 mph N/A   Scattered Clouds
3:55 PM 68.5 °F 51.8 °F 55% 29.96 in 10.0 mi SW 4.6 mph - N/A   Scattered Clouds
4:15 PM 68.0 °F 52.2 °F 57% 29.96 in 10.0 mi SW 8.1 mph - N/A   Scattered Clouds
4:35 PM 67.5 °F 51.8 °F 57% 29.96 in 10.0 mi WSW 10.4 mph - N/A   Mostly Cloudy
4:55 PM 67.6 °F 52.3 °F 58% 29.96 in 10.0 mi WSW 8.1 mph - N/A   Scattered Clouds
5:15 PM 68.4 °F 52.7 °F 57% 29.96 in 10.0 mi SW 5.8 mph - N/A   Scattered Clouds
5:35 PM 69.1 °F 53.1 °F 57% 29.97 in 10.0 mi SSW 9.2 mph - N/A   Mostly Cloudy
5:55 PM 67.1 °F 52.2 °F 59% 29.97 in 10.0 mi SW 8.1 mph - N/A   Scattered Clouds
6:15 PM 68.0 °F 52.7 °F 58% 29.97 in 10.0 mi WSW 6.9 mph - N/A   Scattered Clouds
6:35 PM 67.8 °F 52.3 °F 58% 29.97 in 10.0 mi SW 6.9 mph - N/A   Scattered Clouds
6:55 PM 65.7 °F 52.5 °F 62% 29.97 in 10.0 mi WSW 5.8 mph - N/A   Clear
7:15 PM 65.8 °F 52.7 °F 62% 29.98 in 10.0 mi SSW 3.5 mph - N/A   Scattered Clouds
7:35 PM 65.1 °F 53.1 °F 65% 29.98 in 10.0 mi SW 4.6 mph - N/A   Clear
7:55 PM 63.3 °F 53.4 °F 70% 29.99 in 10.0 mi SW 3.5 mph - N/A   Clear
8:15 PM 61.0 °F 54.1 °F 78% 29.99 in 10.0 mi SSW 3.5 mph - N/A   Clear
8:35 PM 59.9 °F 53.6 °F 80% 30.00 in 10.0 mi SSW 3.5 mph - N/A   Clear
8:55 PM 59.2 °F 53.8 °F 82% 30.01 in 10.0 mi South 3.5 mph - N/A   Clear
9:15 PM 57.6 °F 53.8 °F 87% 30.01 in 10.0 mi SSW 3.5 mph - N/A   Clear
9:35 PM 56.7 °F 53.6 °F 89% 30.01 in 10.0 mi SSW 3.5 mph - N/A   Clear
9:55 PM 56.7 °F 53.6 °F 89% 30.01 in 10.0 mi SSW 4.6 mph - N/A   Clear
10:15 PM 56.3 °F 53.1 °F 89% 30.03 in 10.0 mi SSW 3.5 mph - N/A   Clear
10:35 PM 56.3 °F 53.1 °F 89% 30.03 in 7.0 mi SSW 3.5 mph - N/A   Clear
10:55 PM 56.3 °F 52.9 °F 88% 30.03 in 10.0 mi South 4.6 mph - N/A   Clear
11:15 PM 55.8 °F 52.9 °F 90% 30.03 in 10.0 mi SSW 3.5 mph - N/A   Clear
11:35 PM 55.6 °F 52.9 °F 91% 30.03 in 10.0 mi SSW 3.5 mph - N/A   Clear
11:55 PM 55.8 °F 53.1 °F 91% 30.02 in 10.0 mi SW 3.5 mph - N/A   Clear